Weather History for PAHN - October, 2014

Change the Weather History Date:

Monday, October 13, 2014

  Actual Average Record
Temperature  
Mean Temperature 48 °F -  
Max Temperature 52 °F 45 °F 57 °F (1979)
Min Temperature 45 °F 37 °F 28 °F (1980)
Degree Days  
Heating Degree Days 16    
Moisture  
Dew Point 45 °F    
Average Humidity 92    
Maximum Humidity 100    
Minimum Humidity 71    
Precipitation  
Precipitation 0.15 in - - ()
Sea Level Pressure  
Sea Level Pressure 29.49 in    
Wind  
Wind Speed 7 mph (WNW)    
Max Wind Speed 18 mph    
Max Gust Speed 22 mph    
Visibility 6 miles    
Events Fog , Rain    
Averages and records for this station are not official NWS values.
T = Trace of Precipitation, MM = Missing Value Source: NWS Daily Summary

Daily Weather History Graph

Daily Weather History Graph

Search for Another Location

Airport or City:

Trip Planner

Search our weather history database for the weather conditions in past years. The results will help you decide how hot, cold, wet, or windy it might be!

Date:

Astronomy

Oct. 13, 2014 Rise Set
Actual Time 7:35 AM AKDT 5:59 PM AKDT
Civil Twilight 6:54 AM AKDT 6:40 PM AKDT
Nautical Twilight 6:07 AM AKDT 7:27 PM AKDT
Astronomical Twilight 5:19 AM AKDT 8:15 PM AKDT
Moon 9:29 PM AKDT (10/13) 1:44 PM AKDT (10/13)
Length of Visible Light 11h 46m
Length of Day
10h 24m
Waning Gibbous, 69% of the Moon is Illuminated
Oct 13
Waning Gibbous
Oct 15
Last Quarter
Oct 23
New
Oct 30
First Quarter
Nov 6
Full

Hourly Weather History & Observations

Time (AKDT) Temp. Windchill Dew Point Humidity Pressure Visibility Wind Dir Wind Speed Gust Speed Precip Events Conditions
12:16 AM 46.9 °F - 46.0 °F 97% 29.55 in 7.0 mi East 5.8 mph - 0.03 in Rain Light Rain
12:33 AM 46.9 °F - 46.0 °F 97% 29.55 in 7.0 mi ESE 8.1 mph - 0.04 in Rain Light Rain
12:43 AM 46.9 °F - 46.0 °F 97% 29.55 in 6.0 mi ESE 6.9 mph - 0.04 in Rain Light Rain
12:54 AM 46.9 °F - 46.0 °F 97% 29.56 in 6.0 mi SE 8.1 mph - 0.04 in Rain Light Rain
1:01 AM 46.0 °F 41.4 °F 45.0 °F 96% 29.55 in 5.0 mi SE 9.2 mph - 0.01 in Rain Light Rain
1:30 AM 46.9 °F - 45.0 °F 93% 29.56 in 8.0 mi ESE 8.1 mph - 0.01 in   Overcast
1:54 AM 46.9 °F - 46.0 °F 97% 29.57 in 5.0 mi East 8.1 mph - 0.01 in Rain Light Rain
2:54 AM 48.0 °F - 46.0 °F 93% 29.57 in 10.0 mi SE 6.9 mph - 0.00 in   Overcast
3:20 AM 46.0 °F 43.9 °F 45.0 °F 96% 29.57 in 2.0 mi SE 4.6 mph - 0.01 in Rain Light Rain
3:23 AM 46.0 °F 43.9 °F 45.0 °F 96% 29.57 in 1.8 mi SE 4.6 mph - 0.02 in Rain Light Rain
3:39 AM 46.0 °F - 45.0 °F 96% 29.57 in 2.0 mi Calm Calm - 0.03 in Rain Light Rain
3:54 AM 46.0 °F - 46.0 °F 100% 29.58 in 2.0 mi Calm Calm - 0.04 in Rain Light Rain
4:16 AM 46.0 °F - 45.0 °F 96% 29.57 in 4.0 mi Calm Calm - 0.00 in   Overcast
4:50 AM 46.4 °F 45.2 °F 46.4 °F 100% 29.57 in 3.0 mi ESE 3.5 mph - 0.01 in Rain Light Rain
4:54 AM 46.0 °F 44.8 °F 45.0 °F 96% 29.58 in 3.0 mi SE 3.5 mph - 0.01 in Rain Light Rain
5:54 AM 46.0 °F - 45.0 °F 96% 29.57 in 6.0 mi Calm Calm - 0.01 in Rain Light Rain
6:07 AM 46.0 °F 44.8 °F 45.0 °F 96% 29.56 in 9.0 mi ESE 3.5 mph - 0.00 in   Overcast
6:48 AM 46.4 °F 45.2 °F 44.6 °F 93% 29.57 in 2.0 mi WNW 3.5 mph - 0.00 in   Overcast
6:54 AM 45.0 °F - 45.0 °F 100% 29.57 in 1.8 mi Calm Calm - 0.00 in   Overcast
7:02 AM 45.0 °F - 45.0 °F 100% 29.57 in 2.0 mi Calm Calm - N/A   Overcast
7:10 AM 46.0 °F - 45.0 °F 96% 29.56 in 1.2 mi Calm Calm - N/A   Overcast
7:42 AM 45.0 °F 43.5 °F 44.1 °F 97% 29.56 in 0.5 mi WNW 3.5 mph - N/A Fog Fog
7:54 AM 45.0 °F 43.5 °F 45.0 °F 100% 29.57 in 0.5 mi WNW 3.5 mph - N/A Fog Fog
8:15 AM 46.0 °F 44.8 °F 45.0 °F 96% 29.56 in 0.2 mi WNW 3.5 mph - N/A Fog Fog
8:27 AM 46.0 °F 43.1 °F 45.0 °F 96% 29.55 in 0.5 mi West 5.8 mph - 0.00 in Fog , Rain Light Rain
8:46 AM 46.0 °F 42.5 °F 45.0 °F 96% 29.55 in 1.5 mi WNW 6.9 mph - 0.00 in Rain Light Rain
8:54 AM 46.0 °F 42.5 °F 45.0 °F 96% 29.56 in 1.8 mi WNW 6.9 mph - 0.00 in Rain Light Rain
9:02 AM 46.0 °F 41.9 °F 45.0 °F 96% 29.55 in 2.0 mi WNW 8.1 mph - 0.01 in   Overcast
9:12 AM 46.0 °F 42.5 °F 45.0 °F 96% 29.55 in 1.8 mi WNW 6.9 mph - 0.01 in Rain Light Rain
9:21 AM 46.0 °F 42.5 °F 45.0 °F 96% 29.54 in 2.5 mi WNW 6.9 mph - 0.01 in Rain Light Rain
9:28 AM 46.0 °F 41.9 °F 46.0 °F 100% 29.54 in 4.0 mi West 8.1 mph - 0.01 in   Overcast
9:54 AM 46.9 °F - 46.0 °F 97% 29.53 in 10.0 mi NW 10.4 mph - 0.01 in   Overcast
10:02 AM 46.9 °F - 46.0 °F 97% 29.52 in 10.0 mi WNW 10.4 mph - N/A   Overcast
10:09 AM 46.9 °F - 46.0 °F 97% 29.52 in 10.0 mi WNW 12.7 mph - N/A   Overcast
10:54 AM 48.0 °F - 46.0 °F 93% 29.50 in 10.0 mi WNW 13.8 mph - N/A   Mostly Cloudy
11:20 AM 48.9 °F - 46.0 °F 90% 29.47 in 10.0 mi WNW 18.4 mph - N/A   Scattered Clouds
11:51 AM 50.0 °F - 46.4 °F 87% 29.45 in 10.0 mi NW 16.1 mph - N/A   Mostly Cloudy
11:54 AM 50.0 °F - 46.0 °F 86% 29.46 in 10.0 mi WNW 13.8 mph - N/A   Mostly Cloudy
12:23 PM 50.0 °F - 45.0 °F 83% 29.43 in 10.0 mi NW 16.1 mph - N/A   Mostly Cloudy
12:37 PM 51.1 °F - 45.0 °F 80% 29.43 in 10.0 mi WNW 13.8 mph - N/A   Scattered Clouds
12:54 PM 51.1 °F - 45.0 °F 80% 29.42 in 10.0 mi NW 12.7 mph - N/A   Partly Cloudy
1:54 PM 52.0 °F - 43.0 °F 71% 29.38 in 10.0 mi WNW 16.1 mph - N/A   Clear
2:54 PM 50.0 °F - 44.1 °F 80% 29.34 in 10.0 mi WNW 11.5 mph - N/A   Clear
3:54 PM 50.0 °F - 44.1 °F 80% 29.30 in 10.0 mi WNW 16.1 mph - N/A   Scattered Clouds
4:54 PM 50.0 °F - 44.1 °F 80% 29.29 in 10.0 mi Calm Calm - N/A   Partly Cloudy
5:54 PM 48.9 °F - 44.1 °F 83% 29.28 in 10.0 mi NNW 5.8 mph - N/A   Overcast
6:54 PM 48.9 °F - 43.0 °F 80% 29.24 in 10.0 mi NW 15.0 mph 21.9 mph N/A   Clear
7:54 PM 50.0 °F - 43.0 °F 77% 29.24 in 10.0 mi NNW 9.2 mph - N/A   Scattered Clouds
8:54 PM 48.0 °F - 44.1 °F 86% 29.26 in 10.0 mi WNW 3.5 mph - N/A   Overcast
9:54 PM 48.0 °F - 45.0 °F 89% 29.27 in 10.0 mi West 11.5 mph - 0.01 in Rain Light Rain
10:54 PM 48.9 °F - 44.1 °F 83% 29.29 in 10.0 mi NW 9.2 mph - 0.02 in Rain Light Rain
11:54 PM 48.9 °F - 43.0 °F 80% 29.32 in 10.0 mi NNW 6.9 mph - 0.00 in Rain Light Rain